User: anonymous   Login
Location: Unspecified
(0.0000°N, 0.0000°E)
Time: 01:57:51
(UTC+00:00)
Language:

CHUBUSAT 2 - Orbit

View from above orbital plane
View from above orbital plane
View from above satellite
View from above satellite

Ground track
Ground track

The orbit data is extracted from the following two-line orbital elements,

1 41338U 16012B   17324.88641688  .00000534  00000-0  35204-4 0  9995
2 41338  31.0024 196.9690 0013924 171.4350 188.6525 14.99871435 96530
Epoch (UTC): 20 November 2017 21:16:26
Eccentricity: 0.0013924
inclination: 31.0024°
perigee height: 557 km
apogee height: 577 km
right ascension of ascending node: 196.9690°
argument of perigee: 171.4350°
revolutions per day: 14.99871435
mean anomaly at epoch: 188.6525°
orbit number at epoch: 9653

The dashed part of the orbit path shows where the satellite is in the earth's shadow,  

DLR